Flag for U.S.A. Weather past 2 weeks in Winder, Georgia, U.S.A.

45 °F


Feels Like: 41 °F
Forecast: 42 / 61 °F
Wind: 6 mph from Northeast

Location: Winder-Barrow Airport

Current Time: Nov 26, 2015 at 2:56:29 AM

Latest Report: Nov 26, 2015 at 2:15 AM

Visibility: 10 mi

Pressure: 30.63 "Hg

Humidity: 61%

Dew point: 32 °F

Location of WinderLocation

Historic Weather in Winder — Graph


Winder temperature yesterday

Maximum temperature yesterday: 59 °F (at 2:55 PM)
Minimum temperature yesterday: 34 °F (at 2:55 AM)
Average temperature yesterday: 46 °F

Past Weeks' High & Low Weather Summary

High77 °F (Nov 11, 1:55 PM)94% (Nov 12, 4:15 AM)30.64 "Hg (Nov 12, 4:15 AM)
Low32 °F (Nov 24, 3:55 AM)8% (Nov 14, 3:35 PM)29.96 "Hg (Nov 12, 3:15 PM)
Average53 °F59%30.22 "Hg
* Reported Nov 11 1:15 AM — Nov 26 1:55 AM, Winder, Weather by CustomWeather, © 2015

Note: Actual official high and low records may vary slightly from our data, if they occured in-between our weather recording intervals... More about our weather records


Winder weather history for previous 24 hours

Time TempWeatherWind HumidityBarometerVisibility
1:55 AM
Thu, Nov 26
45 °FClear.6 mph61%30.62 "Hg10 mi
1:15 AM45 °FClear.5 mph66%30.63 "Hg10 mi
12:55 AM45 °FClear.6 mph61%30.64 "Hg10 mi
12:35 AM45 °FClear.5 mph66%30.64 "Hg10 mi
12:15 AM46 °FClear.7 mph57%30.64 "Hg10 mi
11:55 PM
Wed, Nov 25
46 °FClear.5 mph57%30.64 "Hg10 mi
11:35 PM46 °FClear.6 mph57%30.63 "Hg10 mi
11:15 PM46 °FClear.6 mph57%30.63 "Hg10 mi
10:55 PM46 °FClear.6 mph57%30.62 "Hg10 mi
9:55 PM48 °FClear.5 mph54%30.62 "Hg10 mi
9:15 PM50 °FClear.7 mph50%30.61 "Hg10 mi
8:55 PM50 °FClear.3 mph54%30.61 "Hg10 mi
8:15 PM50 °FClear.5 mph54%30.60 "Hg10 mi
7:35 PM52 °FClear.6 mph50%30.60 "Hg10 mi
7:15 PM52 °FClear.5 mph47%30.59 "Hg10 mi
6:55 PM52 °FClear.3 mph50%30.58 "Hg10 mi
6:15 PM54 °FPassing clouds.5 mph44%30.57 "Hg10 mi
5:55 PM54 °FPartly cloudy.5 mph44%30.57 "Hg10 mi
5:15 PM55 °FScattered clouds.3 mph41%30.56 "Hg10 mi
4:55 PM55 °FScattered clouds.6 mph41%30.55 "Hg10 mi
4:35 PM57 °FPartly sunny.6 mph39%30.55 "Hg10 mi
4:15 PM59 °FPartly sunny.8 mph36%30.55 "Hg10 mi
3:55 PM59 °FPartly sunny.7 mph36%30.54 "Hg10 mi
3:15 PM59 °FOvercast.7 mph36%30.55 "Hg10 mi
2:55 PM59 °FOvercast.6 mph36%30.54 "Hg10 mi
2:35 PM57 °FPartly sunny.7 mph39%30.55 "Hg10 mi
2:15 PM55 °FMostly cloudy.6 mph41%30.55 "Hg10 mi
1:55 PM55 °FMostly cloudy.7 mph41%30.55 "Hg10 mi
1:15 PM55 °FMostly cloudy.6 mph41%30.57 "Hg10 mi
12:55 PM54 °FOvercast.5 mph44%30.57 "Hg10 mi
12:35 PM54 °FOvercast.5 mph44%30.58 "Hg10 mi
12:15 PM54 °FMostly cloudy.7 mph44%30.59 "Hg10 mi
11:55 AM54 °FMostly cloudy.6 mph44%30.59 "Hg10 mi
11:35 AM52 °FMostly cloudy.3 mph47%30.60 "Hg10 mi
11:15 AM52 °FMore clouds than sun.3 mph50%30.60 "Hg10 mi
10:55 AM50 °FMore clouds than sun.No wind54%30.60 "Hg10 mi
10:35 AM46 °FMore clouds than sun.No wind62%30.60 "Hg10 mi
10:15 AM46 °FMore clouds than sun.No wind62%30.60 "Hg10 mi
9:55 AM45 °FMostly cloudy.3 mph66%30.59 "Hg10 mi
9:35 AM43 °FOvercast.6 mph71%30.59 "Hg10 mi
9:15 AM43 °FOvercast.3 mph71%30.58 "Hg10 mi
8:55 AM41 °FOvercast.5 mph76%30.57 "Hg10 mi
8:15 AM39 °FOvercast.3 mph75%30.56 "Hg10 mi
7:55 AM37 °FOvercast.3 mph81%30.55 "Hg10 mi
7:35 AM37 °FOvercast.No wind81%30.54 "Hg10 mi
7:15 AM37 °FOvercast.No wind81%30.54 "Hg10 mi
6:55 AM36 °FPartly cloudy.No wind87%30.53 "Hg10 mi
6:35 AM37 °FOvercast.3 mph81%30.52 "Hg10 mi
6:15 AM36 °FPassing clouds.5 mph87%30.52 "Hg10 mi
5:55 AM34 °FClear.3 mph93%30.51 "Hg10 mi
5:35 AM34 °FClear.No wind87%30.51 "Hg10 mi
5:15 AM34 °FClear.No wind93%30.50 "Hg10 mi
4:55 AM34 °FClear.3 mph87%30.50 "Hg10 mi
4:35 AM34 °FClear.No wind93%30.48 "Hg10 mi
4:15 AM36 °FClear.No wind87%30.48 "Hg10 mi
3:55 AM36 °FClear.No wind87%30.47 "Hg10 mi
3:35 AM36 °FClear.No wind87%30.48 "Hg10 mi
3:15 AM36 °FClear.No wind87%30.47 "Hg10 mi
2:55 AM34 °FClear.No wind93%30.47 "Hg10 mi
2:15 AM37 °FClear.No wind81%30.46 "Hg10 mi
Weather by CustomWeather, © 2015

See weather overviewHow to use our weather pages